Volver al catálogo

XINGWANG JISHU SW 10-01

ActivoCienciaVLEO
NORAD 69320·PAYLOAD·🇨🇳 China
Este nombre de satélite aún no ha sido confirmado por fuentes oficiales.

Lanzado May 30, 2026 desde Xichang Satellite Launch Center

Loading…

Próximos Pases (próximas 24 horas)

TLE

ActualizadoSource: Space-Track

Época: Sep 14, 2026, 13:12 UTC

1 69320U 26120A   26257.55000021  .00012926  00000-0  61659-3 0  9996
2 69320  55.0120 351.1825 0011054 152.4709 207.6898 15.19406395 16368

Sigue XINGWANG JISHU SW 10-01 en tiempo real con AllMySat

Download on the App Store